Time,TemperatureF,DewpointF,PressureIn,WindDirection,WindDirectionDegrees,WindSpeedMPH,WindSpeedGustMPH,Humidity,HourlyPrecipIn,Conditions,Clouds,dailyrainin,SolarRadiationWatts/m^2,SoftwareType,DateUTC
2013-01-07 00:13:00,39.8,37.0,29.99,ESE,110,0.0,-999.0,91,-99.99,,,0.01,0,weatherlink.com 1.10,2013-01-07 08:13:00,
2013-01-07 00:28:00,39.9,38.0,29.98,ESE,110,1.0,-999.0,91,-99.99,,,0.03,0,weatherlink.com 1.10,2013-01-07 08:28:00,
2013-01-07 00:43:00,39.9,38.0,29.97,ESE,117,0.0,-999.0,91,-99.99,,,0.03,0,weatherlink.com 1.10,2013-01-07 08:43:00,
2013-01-07 00:58:00,39.9,38.0,29.97,ESE,117,0.0,-999.0,91,-99.99,,,0.04,0,weatherlink.com 1.10,2013-01-07 08:58:00,
2013-01-07 01:13:00,39.9,38.0,29.96,ESE,117,0.0,-999.0,91,-99.99,,,0.05,0,weatherlink.com 1.10,2013-01-07 09:13:00,
2013-01-07 01:28:00,40.1,38.0,29.95,ESE,117,0.0,-999.0,92,-99.99,,,0.06,0,weatherlink.com 1.10,2013-01-07 09:28:00,
2013-01-07 01:43:00,40.2,38.0,29.96,ESE,117,1.0,-999.0,92,-99.99,,,0.07,0,weatherlink.com 1.10,2013-01-07 09:43:00,
2013-01-07 01:58:00,40.2,38.0,29.96,ESE,117,0.0,-999.0,92,-99.99,,,0.09,0,weatherlink.com 1.10,2013-01-07 09:58:00,
2013-01-07 02:13:00,40.5,38.0,29.95,ESE,117,0.0,-999.0,92,-99.99,,,0.12,0,weatherlink.com 1.10,2013-01-07 10:13:00,
2013-01-07 02:28:00,40.8,39.0,29.94,SSE,167,2.0,-999.0,92,-99.99,,,0.12,0,weatherlink.com 1.10,2013-01-07 10:28:00,
2013-01-07 02:43:00,41.1,39.0,29.94,West,264,0.0,-999.0,93,-99.99,,,0.12,0,weatherlink.com 1.10,2013-01-07 10:43:00,
2013-01-07 02:58:00,41.5,40.0,29.93,ESE,121,0.0,-999.0,93,-99.99,,,0.12,0,weatherlink.com 1.10,2013-01-07 10:58:00,
2013-01-07 03:13:00,41.8,40.0,29.92,SSW,204,1.0,-999.0,93,-99.99,,,0.12,0,weatherlink.com 1.10,2013-01-07 11:13:00,
2013-01-07 03:28:00,41.9,40.0,29.91,ESE,114,2.0,-999.0,93,-99.99,,,0.12,0,weatherlink.com 1.10,2013-01-07 11:28:00,
2013-01-07 03:43:00,42.5,41.0,29.91,SSW,196,6.0,-999.0,93,-99.99,,,0.12,0,weatherlink.com 1.10,2013-01-07 11:43:00,
2013-01-07 03:58:00,42.8,41.0,29.90,SSE,166,3.0,-999.0,93,-99.99,,,0.12,0,weatherlink.com 1.10,2013-01-07 11:58:00,
2013-01-07 04:13:00,42.9,41.0,29.89,West,262,1.0,-999.0,93,-99.99,,,0.12,0,weatherlink.com 1.10,2013-01-07 12:13:00,
2013-01-07 04:28:00,43.1,41.0,29.89,South,190,2.0,-999.0,93,-99.99,,,0.12,0,weatherlink.com 1.10,2013-01-07 12:28:00,
2013-01-07 04:43:00,43.2,41.0,29.88,SSW,209,2.0,-999.0,93,-99.99,,,0.12,0,weatherlink.com 1.10,2013-01-07 12:43:00,
2013-01-07 04:58:00,43.2,41.0,29.87,SSE,155,1.0,-999.0,93,-99.99,,,0.12,0,weatherlink.com 1.10,2013-01-07 12:58:00,
2013-01-07 05:13:00,43.2,41.0,29.85,South,172,6.0,-999.0,92,-99.99,,,0.12,0,weatherlink.com 1.10,2013-01-07 13:13:00,
2013-01-07 05:28:00,43.3,41.0,29.84,ESE,111,1.0,-999.0,92,-99.99,,,0.12,0,weatherlink.com 1.10,2013-01-07 13:28:00,
2013-01-07 05:43:00,43.5,41.0,29.83,SW,232,3.0,-999.0,92,-99.99,,,0.12,0,weatherlink.com 1.10,2013-01-07 13:43:00,
2013-01-07 05:58:00,43.6,42.0,29.83,SW,232,2.0,-999.0,92,-99.99,,,0.12,0,weatherlink.com 1.10,2013-01-07 13:58:00,
2013-01-07 06:13:00,43.9,42.0,29.84,SSE,155,5.0,-999.0,92,-99.99,,,0.12,0,weatherlink.com 1.10,2013-01-07 14:13:00,
2013-01-07 06:43:00,44.2,42.0,29.84,South,184,1.0,-999.0,92,-99.99,,,0.13,0,weatherlink.com 1.10,2013-01-07 14:43:00,
2013-01-07 06:58:00,44.2,42.0,29.83,South,182,0.0,-999.0,92,-99.99,,,0.13,0,weatherlink.com 1.10,2013-01-07 14:58:00,
2013-01-07 07:13:00,44.5,42.0,29.83,SW,222,3.0,-999.0,92,-99.99,,,0.13,0,weatherlink.com 1.10,2013-01-07 15:13:00,
2013-01-07 07:28:00,44.8,43.0,29.83,SSW,206,10.0,-999.0,92,-99.99,,,0.13,0,weatherlink.com 1.10,2013-01-07 15:28:00,
2013-01-07 07:43:00,45.2,43.0,29.83,WSW,258,4.0,-999.0,92,-99.99,,,0.13,0,weatherlink.com 1.10,2013-01-07 15:43:00,
2013-01-07 07:58:00,45.5,43.0,29.82,ESE,115,3.0,-999.0,92,-99.99,,,0.13,0,weatherlink.com 1.10,2013-01-07 15:58:00,
2013-01-07 08:13:00,46.0,44.0,29.80,SW,215,5.0,-999.0,92,-99.99,,,0.13,5,weatherlink.com 1.10,2013-01-07 16:13:00,
2013-01-07 08:28:00,46.2,44.0,29.81,South,190,15.0,-999.0,91,-99.99,,,0.13,5,weatherlink.com 1.10,2013-01-07 16:28:00,
2013-01-07 08:43:00,46.4,44.0,29.82,SW,218,6.0,-999.0,91,-99.99,,,0.13,11,weatherlink.com 1.10,2013-01-07 16:43:00,
2013-01-07 08:58:00,46.8,44.0,29.82,South,175,3.0,-999.0,90,-99.99,,,0.13,16,weatherlink.com 1.10,2013-01-07 16:58:00,
2013-01-07 09:13:00,47.3,45.0,29.82,SE,138,4.0,-999.0,90,-99.99,,,0.13,18,weatherlink.com 1.10,2013-01-07 17:13:00,
2013-01-07 09:28:00,47.4,45.0,29.84,WSW,252,3.0,-999.0,90,-99.99,,,0.13,19,weatherlink.com 1.10,2013-01-07 17:28:00,
2013-01-07 09:43:00,47.6,45.0,29.85,SSE,162,11.0,-999.0,90,-99.99,,,0.13,30,weatherlink.com 1.10,2013-01-07 17:43:00,
2013-01-07 09:58:00,47.7,45.0,29.86,WSW,246,9.0,-999.0,90,-99.99,,,0.13,19,weatherlink.com 1.10,2013-01-07 17:58:00,
2013-01-07 10:13:00,47.7,45.0,29.87,SSE,148,9.0,-999.0,90,-99.99,,,0.13,25,weatherlink.com 1.10,2013-01-07 18:13:00,
2013-01-07 10:28:00,47.7,45.0,29.87,South,173,3.0,-999.0,90,-99.99,,,0.13,23,weatherlink.com 1.10,2013-01-07 18:28:00,
2013-01-07 10:43:00,47.9,46.0,29.89,SW,232,7.0,-999.0,91,-99.99,,,0.13,28,weatherlink.com 1.10,2013-01-07 18:43:00,
2013-01-07 10:58:00,48.0,46.0,29.89,SE,133,0.0,-999.0,91,-99.99,,,0.13,19,weatherlink.com 1.10,2013-01-07 18:58:00,
2013-01-07 11:13:00,48.0,46.0,29.90,SE,130,4.0,-999.0,91,-99.99,,,0.14,25,weatherlink.com 1.10,2013-01-07 19:13:00,
2013-01-07 11:28:00,48.2,46.0,29.90,SSW,208,10.0,-999.0,91,-99.99,,,0.14,25,weatherlink.com 1.10,2013-01-07 19:28:00,
2013-01-07 11:43:00,48.3,46.0,29.89,SSE,157,4.0,-999.0,91,-99.99,,,0.14,25,weatherlink.com 1.10,2013-01-07 19:43:00,
2013-01-07 11:58:00,48.6,46.0,29.89,South,174,4.0,-999.0,91,-99.99,,,0.14,37,weatherlink.com 1.10,2013-01-07 19:58:00,
2013-01-07 12:13:00,48.8,46.0,29.89,SE,124,4.0,-999.0,91,-99.99,,,0.14,37,weatherlink.com 1.10,2013-01-07 20:13:00,
2013-01-07 12:28:00,48.9,46.0,29.90,South,191,3.0,-999.0,90,-99.99,,,0.14,32,weatherlink.com 1.10,2013-01-07 20:28:00,
2013-01-07 12:42:00,48.9,46.0,29.89,South,190,2.0,-999.0,90,-99.99,,,0.14,33,weatherlink.com 1.10,2013-01-07 20:42:00,
2013-01-07 13:12:00,49.1,46.0,29.91,SSE,167,11.0,-999.0,89,-99.99,,,0.14,26,weatherlink.com 1.10,2013-01-07 21:12:00,
2013-01-07 13:27:00,49.1,46.0,29.93,SSW,202,2.0,-999.0,88,-99.99,,,0.14,37,weatherlink.com 1.10,2013-01-07 21:27:00,
2013-01-07 13:42:00,49.1,46.0,29.93,WNW,290,6.0,-999.0,88,-99.99,,,0.14,32,weatherlink.com 1.10,2013-01-07 21:42:00,
2013-01-07 13:57:00,49.2,46.0,29.95,South,180,2.0,-999.0,87,-99.99,,,0.14,37,weatherlink.com 1.10,2013-01-07 21:57:00,
2013-01-07 14:12:00,49.2,45.0,29.96,SSW,202,4.0,-999.0,86,-99.99,,,0.14,28,weatherlink.com 1.10,2013-01-07 22:12:00,
2013-01-07 14:27:00,49.4,45.0,29.96,SSW,211,8.0,-999.0,85,-99.99,,,0.14,25,weatherlink.com 1.10,2013-01-07 22:27:00,
2013-01-07 14:42:00,49.2,45.0,29.98,NW,315,2.0,-999.0,84,-99.99,,,0.14,26,weatherlink.com 1.10,2013-01-07 22:42:00,
2013-01-07 14:57:00,49.1,45.0,29.97,SSW,203,11.0,-999.0,84,-99.99,,,0.14,21,weatherlink.com 1.10,2013-01-07 22:57:00,
2013-01-07 15:12:00,48.9,44.0,29.98,NW,313,6.0,-999.0,83,-99.99,,,0.14,12,weatherlink.com 1.10,2013-01-07 23:12:00,
2013-01-07 15:27:00,48.9,44.0,29.98,WSW,238,4.0,-999.0,83,-99.99,,,0.14,12,weatherlink.com 1.10,2013-01-07 23:27:00,
2013-01-07 15:42:00,48.8,44.0,30.00,South,175,3.0,-999.0,83,-99.99,,,0.14,9,weatherlink.com 1.10,2013-01-07 23:42:00,
2013-01-07 15:57:00,48.6,44.0,30.01,SSW,205,11.0,-999.0,83,-99.99,,,0.14,0,weatherlink.com 1.10,2013-01-07 23:57:00,
2013-01-07 16:12:00,48.5,44.0,30.02,WNW,285,3.0,-999.0,83,-99.99,,,0.14,0,weatherlink.com 1.10,2013-01-08 00:12:00,
2013-01-07 16:27:00,48.5,44.0,30.03,SW,219,11.0,-999.0,83,-99.99,,,0.14,0,weatherlink.com 1.10,2013-01-08 00:27:00,
2013-01-07 16:42:00,48.3,43.0,30.02,SSW,196,8.0,-999.0,83,-99.99,,,0.14,0,weatherlink.com 1.10,2013-01-08 00:42:00,
2013-01-07 17:12:00,48.0,43.0,30.04,WSW,240,4.0,-999.0,84,-99.99,,,0.14,0,weatherlink.com 1.10,2013-01-08 01:12:00,
2013-01-07 17:27:00,47.9,43.0,30.04,SSW,209,7.0,-999.0,84,-99.99,,,0.14,0,weatherlink.com 1.10,2013-01-08 01:27:00,
2013-01-07 17:42:00,47.9,44.0,30.04,South,169,2.0,-999.0,85,-99.99,,,0.14,0,weatherlink.com 1.10,2013-01-08 01:42:00,
2013-01-07 17:57:00,47.7,43.0,30.05,SSW,192,1.0,-999.0,85,-99.99,,,0.14,0,weatherlink.com 1.10,2013-01-08 01:57:00,
2013-01-07 18:12:00,47.4,43.0,30.06,SSE,160,3.0,-999.0,84,-99.99,,,0.14,0,weatherlink.com 1.10,2013-01-08 02:12:00,
2013-01-07 18:42:00,47.3,43.0,30.07,SSW,213,8.0,-999.0,84,-99.99,,,0.14,0,weatherlink.com 1.10,2013-01-08 02:42:00,
2013-01-07 18:57:00,47.1,42.0,30.07,SW,221,5.0,-999.0,83,-99.99,,,0.14,0,weatherlink.com 1.10,2013-01-08 02:57:00,
2013-01-07 19:12:00,47.0,42.0,30.08,SW,234,5.0,-999.0,82,-99.99,,,0.14,0,weatherlink.com 1.10,2013-01-08 03:12:00,
2013-01-07 19:27:00,46.8,42.0,30.09,SSW,213,6.0,-999.0,82,-99.99,,,0.14,0,weatherlink.com 1.10,2013-01-08 03:27:00,
2013-01-07 19:42:00,46.8,41.0,30.09,SW,215,6.0,-999.0,81,-99.99,,,0.14,0,weatherlink.com 1.10,2013-01-08 03:42:00,
2013-01-07 19:57:00,46.7,41.0,30.09,SE,130,4.0,-999.0,80,-99.99,,,0.14,0,weatherlink.com 1.10,2013-01-08 03:57:00,
2013-01-07 20:12:00,46.5,41.0,30.09,West,259,4.0,-999.0,80,-99.99,,,0.14,0,weatherlink.com 1.10,2013-01-08 04:12:00,
2013-01-07 20:27:00,46.4,40.0,30.09,SSW,203,2.0,-999.0,79,-99.99,,,0.14,0,weatherlink.com 1.10,2013-01-08 04:27:00,
2013-01-07 20:42:00,46.4,40.0,30.10,SW,236,2.0,-999.0,79,-99.99,,,0.14,0,weatherlink.com 1.10,2013-01-08 04:42:00,
2013-01-07 20:57:00,46.2,40.0,30.10,SW,235,7.0,-999.0,79,-99.99,,,0.14,0,weatherlink.com 1.10,2013-01-08 04:57:00,
2013-01-07 21:28:00,46.1,40.0,30.12,SW,221,2.0,-999.0,80,-99.99,,,0.14,0,weatherlink.com 1.10,2013-01-08 05:28:00,
2013-01-07 21:43:00,46.0,40.0,30.12,SE,126,2.0,-999.0,80,-99.99,,,0.14,0,weatherlink.com 1.10,2013-01-08 05:43:00,
2013-01-07 21:58:00,46.0,40.0,30.13,South,171,4.0,-999.0,80,-99.99,,,0.14,0,weatherlink.com 1.10,2013-01-08 05:58:00,
2013-01-07 22:13:00,45.8,40.0,30.14,SSE,150,3.0,-999.0,81,-99.99,,,0.14,0,weatherlink.com 1.10,2013-01-08 06:13:00,
2013-01-07 22:28:00,45.8,40.0,30.13,WSW,258,4.0,-999.0,80,-99.99,,,0.14,0,weatherlink.com 1.10,2013-01-08 06:28:00,
2013-01-07 22:43:00,45.7,40.0,30.14,SSW,202,1.0,-999.0,80,-99.99,,,0.14,0,weatherlink.com 1.10,2013-01-08 06:43:00,
2013-01-07 23:13:00,45.7,40.0,30.15,SSW,198,5.0,-999.0,80,-99.99,,,0.14,0,weatherlink.com 1.10,2013-01-08 07:13:00,
2013-01-07 23:28:00,45.7,40.0,30.16,South,171,4.0,-999.0,80,-99.99,,,0.14,0,weatherlink.com 1.10,2013-01-08 07:28:00,
2013-01-07 23:43:00,45.7,40.0,30.16,South,177,2.0,-999.0,80,-99.99,,,0.14,0,weatherlink.com 1.10,2013-01-08 07:43:00,
2013-01-07 23:58:00,45.7,40.0,30.16,SSW,198,1.0,-999.0,80,-99.99,,,0.14,0,weatherlink.com 1.10,2013-01-08 07:58:00,